User: anonymous   Login
Location: Boston
(42.3580°N, 71.0600°W)
Time: 17:36:43
(UTC-04:00)
Language:

Envisat - Orbit

View from above orbital plane
View from above orbital plane
View from above satellite
View from above satellite

Ground track
Ground track

The orbit data is extracted from the following two-line orbital elements,

1 27386U 02009A   18261.57167103 -.00000016  00000-0  81178-5 0  9993
2 27386  98.1779 291.1971 0001250  88.2071  85.3724 14.37929689866943
Epoch (UTC): 18 September 2018 13:43:12
Eccentricity: 0.0001250
inclination: 98.1779°
perigee height: 764 km
apogee height: 766 km
right ascension of ascending node: 291.1971°
argument of perigee: 88.2071°
revolutions per day: 14.37929689
mean anomaly at epoch: 85.3724°
orbit number at epoch: 86694

The dashed part of the orbit path shows where the satellite is in the earth's shadow,  

DLR